Time,TemperatureF,DewpointF,PressureIn,WindDirection,WindDirectionDegrees,WindSpeedMPH,WindSpeedGustMPH,Humidity,HourlyPrecipIn,Conditions,Clouds,dailyrainin,SoftwareType,DateUTC
2013-03-12 02:22:00,25.0,16.0,30.27,North,-999,0.0,0.0,67,0.00,,,-99.99,,2013-03-12 09:22:00,
2013-03-12 02:32:00,25.0,16.0,30.27,North,-999,0.0,0.0,67,0.00,,,-99.99,,2013-03-12 09:32:00,
2013-03-12 02:42:00,25.0,16.0,30.27,North,-999,0.0,0.0,67,0.00,,,-99.99,,2013-03-12 09:42:00,
2013-03-12 03:22:00,24.0,15.0,30.26,North,-999,0.0,0.0,68,0.00,,,-99.99,,2013-03-12 10:22:00,
2013-03-12 03:32:00,24.0,15.0,30.26,North,-999,0.0,0.0,68,0.00,,,-99.99,,2013-03-12 10:32:00,
2013-03-12 03:42:00,24.0,15.0,30.26,North,-999,0.0,0.0,68,0.00,,,-99.99,,2013-03-12 10:42:00,
2013-03-12 12:43:00,57.0,15.0,30.28,East,80,5.0,10.0,19,0.00,,,-99.99,,2013-03-12 19:43:00,
2013-03-12 13:22:00,58.0,15.0,30.28,North,0,0.0,8.0,18,0.00,,,-99.99,,2013-03-12 20:22:00,
2013-03-12 13:32:00,58.0,15.0,30.28,North,0,0.0,8.0,18,0.00,,,-99.99,,2013-03-12 20:32:00,
2013-03-12 13:42:00,58.0,15.0,30.28,North,0,0.0,8.0,18,0.00,,,-99.99,,2013-03-12 20:42:00,
2013-03-12 14:22:00,58.0,15.0,30.26,NE,40,7.0,13.0,18,0.00,,,-99.99,,2013-03-12 21:22:00,
2013-03-12 14:32:00,58.0,15.0,30.26,NE,40,7.0,13.0,18,0.00,,,-99.99,,2013-03-12 21:32:00,
2013-03-12 14:42:00,58.0,15.0,30.26,NE,40,7.0,13.0,18,0.00,,,-99.99,,2013-03-12 21:42:00,
2013-03-12 15:22:00,58.0,16.0,30.24,NE,40,6.0,13.0,19,0.00,,,-99.99,,2013-03-12 22:22:00,
2013-03-12 15:32:00,58.0,16.0,30.24,NE,40,6.0,13.0,19,0.00,,,-99.99,,2013-03-12 22:32:00,
2013-03-12 15:42:00,58.0,16.0,30.24,NE,40,6.0,13.0,19,0.00,,,-99.99,,2013-03-12 22:42:00,
2013-03-12 16:22:00,58.0,13.0,30.26,NNE,20,6.0,13.0,17,0.00,,,-99.99,,2013-03-12 23:22:00,
2013-03-12 16:34:00,58.0,13.0,30.26,NNE,20,6.0,13.0,17,0.00,,,-99.99,,2013-03-12 23:34:00,
2013-03-12 16:43:00,58.0,13.0,30.26,NNE,20,6.0,13.0,17,0.00,,,-99.99,,2013-03-12 23:43:00,
2013-03-12 17:22:00,58.0,16.0,30.26,North,10,5.0,10.0,19,0.00,,,-99.99,,2013-03-13 00:22:00,
2013-03-12 17:33:00,58.0,16.0,30.26,North,10,5.0,10.0,19,0.00,,,-99.99,,2013-03-13 00:33:00,
2013-03-12 17:42:00,58.0,16.0,30.26,North,10,5.0,10.0,19,0.00,,,-99.99,,2013-03-13 00:42:00,
2013-03-12 18:22:00,56.0,18.0,30.27,NE,40,3.0,6.0,22,0.00,,,-99.99,,2013-03-13 01:22:00,
2013-03-12 18:32:00,56.0,18.0,30.27,NE,40,3.0,6.0,22,0.00,,,-99.99,,2013-03-13 01:32:00,
2013-03-12 18:42:00,56.0,18.0,30.27,NE,40,3.0,6.0,22,0.00,,,-99.99,,2013-03-13 01:42:00,
2013-03-12 19:22:00,52.0,18.0,30.31,North,-999,0.0,0.0,26,0.00,,,-99.99,,2013-03-13 02:22:00,
2013-03-12 19:32:00,52.0,18.0,30.31,North,-999,0.0,0.0,26,0.00,,,-99.99,,2013-03-13 02:32:00,
2013-03-12 19:42:00,52.0,18.0,30.31,North,-999,0.0,0.0,26,0.00,,,-99.99,,2013-03-13 02:42:00,
2013-03-12 20:22:00,42.0,23.0,30.31,North,-999,0.0,0.0,47,0.00,,,-99.99,,2013-03-13 03:22:00,
2013-03-12 20:32:00,42.0,23.0,30.31,North,-999,0.0,0.0,47,0.00,,,-99.99,,2013-03-13 03:32:00,
2013-03-12 20:42:00,42.0,23.0,30.31,North,-999,0.0,0.0,47,0.00,,,-99.99,,2013-03-13 03:42:00,
2013-03-12 21:22:00,36.0,23.0,30.29,North,-999,0.0,0.0,58,0.00,,,-99.99,,2013-03-13 04:22:00,
2013-03-12 21:32:00,36.0,23.0,30.29,North,-999,0.0,0.0,58,0.00,,,-99.99,,2013-03-13 04:32:00,
2013-03-12 21:42:00,36.0,23.0,30.29,North,-999,0.0,0.0,58,0.00,,,-99.99,,2013-03-13 04:42:00,
2013-03-12 22:22:00,33.0,23.0,30.27,North,-999,0.0,0.0,66,0.00,,,-99.99,,2013-03-13 05:22:00,
2013-03-12 22:32:00,33.0,23.0,30.27,North,-999,0.0,0.0,66,0.00,,,-99.99,,2013-03-13 05:32:00,
2013-03-12 22:42:00,33.0,23.0,30.27,North,-999,0.0,0.0,66,0.00,,,-99.99,,2013-03-13 05:42:00,
2013-03-12 23:22:00,30.0,22.0,30.29,North,-999,0.0,0.0,72,0.00,,,-99.99,,2013-03-13 06:22:00,
2013-03-12 23:32:00,30.0,22.0,30.29,North,-999,0.0,0.0,72,0.00,,,-99.99,,2013-03-13 06:32:00,
2013-03-12 23:42:00,30.0,22.0,30.29,North,-999,0.0,0.0,72,0.00,,,-99.99,,2013-03-13 06:42:00,